Location: Erdweis
(48.5167°N, 15.3500°E)
Time: 14:54:01
(UTC+00:00)

NOSS 2-2 (C) - Pass Details

Date: 18 January 2021
Orbit: 463 x 1745 km, 63.3° (Epoch: 03 March)

Event Time Altitude Azimuth Distance (km) Brightness Sun altitude
Rises 17:34:15 0° 311° (NW) 2,718 7.4 -19.2°
Reaches altitude 10° 17:37:19 10° 339° (NNW) 1,987 6.3 -19.7°
Maximum altitude 17:39:39 14° 11° (N) 1,883 5.8 -20.1°
Enters shadow 17:39:56 14° 15° (NNE) 1,905 5.8 -20.1°
